Find Kosmos-1995

NORAD ID: 19786 Int'l Des: 1989-009 Owner: UNKS Country: SU operational
LEOCIRCULARPOLAR

实时位置

正在加载3D地球...

关于 Kosmos-1995

正在加载描述...

即将过境

Passes for default location (London). Set your location on the main map for personalized predictions.

高度历史

Loading altitude history...

两行轨道根数

1 19786U 89009B 26106.90241705 .00000013 00000-0 15722-4 0 9995
2 19786 82.6212 67.6246 0002003 263.1716 123.6356 12.62233812712619
Epoch: Apr 16, 2026 • Age: 9 hours

当前状态

高度 1431.7 km
速度 7.15 km/s
星下点 -49.87°S, 44.34°W
发射日期 Feb 10, 1989
运行时间 37.1 years
类型 other

技术详情

分类 Payload
质量 225.00 kg
干质量 225.00 kg
总质量 225.00 kg
长度 1.60 m
直径 0.80 m
跨度 7.00 m
形状 Cyl + Ant
制造商 NPOPM
平台类型 Strela-3
阶段状态 In Orbit
所有者/国家 UNKS/SU

Most Searched